Weather History for Caribou, ME

Change the Weather History Date:

Wednesday, April 2, 2014

  Actual Average Record
Temperature  
Mean Temperature 26 °F 32 °F  
Max Temperature 38 °F 41 °F 68 °F (2010)
Min Temperature 14 °F 23 °F -2 °F (1964)
Degree Days  
Heating Degree Days 39 33  
Month to date heating degree days 70 67  
Since 1 July heating degree days 8264 8042  
Cooling Degree Days 0 0  
Month to date cooling degree days 0 0  
Year to date cooling degree days 0 0  
Moisture  
Dew Point 15 °F    
Average Humidity 59    
Maximum Humidity 78    
Minimum Humidity 40    
Precipitation  
Precipitation 0.00 in 0.09 in 1.52 in (1976)
Month to date precipitation 0.00 0.17  
Year to date precipitation 9.66 7.60  
Snow  
Snow 0.00 in 0.50 in 8.20 in (1970)
Month to date snowfall 0.0 0.9  
Since 1 July snowfall 141.5 101.7  
Snow Depth 31.00 in    
Sea Level Pressure  
Sea Level Pressure 30.10 in    
Wind  
Wind Speed 6 mph (SE)    
Max Wind Speed 15 mph    
Max Gust Speed 18 mph    
Visibility 10 miles    
Events      
T = Trace of Precipitation, MM = Missing Value Source: NWS Daily Summary

Daily Weather History Graph

Daily Weather History Graph

Search for Another Location

Airport:

Trip Planner

Search our weather history database for the weather conditions in past years. The results will help you decide how hot, cold, wet, or windy it might be!

Date:

Astronomy

Apr. 02, 2014 Rise Set
Actual Time 6:09 AM EDT 7:02 PM EDT
Civil Twilight 5:38 AM EDT 7:33 PM EDT
Nautical Twilight 5:01 AM EDT 8:10 PM EDT
Astronomical Twilight 4:23 AM EDT 8:49 PM EDT
Moon 7:41 AM EDT (4/2) 10:34 PM EDT (4/2)
Length of Visible Light 13h 54m
Length of Day
12h 53m
Waxing Crescent, 10% of the Moon is Illuminated
Apr 2
Waxing Crescent
Apr 7
First Quarter
Apr 15
Full
Apr 22
Last Quarter
Apr 29
New

Hourly Weather History & Observations

Time (EDT) Temp. Windchill Dew Point Humidity Pressure Visibility Wind Dir Wind Speed Gust Speed Precip Events Conditions
12:54 AM 24.1 °F 16.0 °F 3.0 °F 40% 30.17 in 10.0 mi NNW 6.9 mph - N/A   Clear
1:54 AM 21.9 °F 14.5 °F 5.0 °F 48% 30.15 in 10.0 mi North 5.8 mph - N/A   Clear
2:54 AM 21.9 °F 12.5 °F 5.0 °F 48% 30.14 in 10.0 mi NNE 8.1 mph - N/A   Clear
3:54 AM 21.9 °F 13.4 °F 6.1 °F 51% 30.13 in 10.0 mi NNE 6.9 mph - N/A   Clear
4:54 AM 21.9 °F 15.7 °F 5.0 °F 48% 30.12 in 10.0 mi NNE 4.6 mph - N/A   Clear
5:54 AM 14.0 °F 6.5 °F 3.0 °F 62% 30.15 in 10.0 mi WNW 4.6 mph - N/A   Clear
6:54 AM 17.1 °F 10.0 °F 5.0 °F 59% 30.15 in 10.0 mi WSW 4.6 mph - N/A   Clear
8:54 AM 26.1 °F - 8.1 °F 47% 30.15 in 10.0 mi Calm Calm - N/A   Clear
9:54 AM 28.0 °F 21.7 °F 10.0 °F 47% 30.14 in 10.0 mi SE 5.8 mph - N/A   Clear
10:54 AM 30.0 °F 25.2 °F 12.0 °F 47% 30.13 in 10.0 mi SE 4.6 mph - N/A   Clear
11:54 AM 30.9 °F 24.3 °F 12.0 °F 46% 30.11 in 10.0 mi SE 6.9 mph - N/A   Clear
12:54 PM 34.0 °F 29.8 °F 16.0 °F 48% 30.12 in 10.0 mi SE 4.6 mph - N/A   Clear
1:54 PM 36.0 °F 29.0 °F 18.0 °F 48% 30.09 in 10.0 mi ESE 9.2 mph - N/A   Clear
2:54 PM 37.9 °F 30.9 °F 19.0 °F 47% 30.07 in 10.0 mi SE 10.4 mph - N/A   Clear
3:54 PM 37.9 °F 31.5 °F 21.9 °F 53% 30.05 in 10.0 mi SSE 9.2 mph - N/A   Clear
4:54 PM 37.9 °F 30.9 °F 24.1 °F 57% 30.04 in 10.0 mi South 10.4 mph - N/A   Clear
5:54 PM 37.0 °F 32.4 °F 24.1 °F 59% 30.03 in 10.0 mi SSE 5.8 mph - N/A   Clear
6:54 PM 37.0 °F 32.4 °F 24.1 °F 59% 30.03 in 10.0 mi SSE 5.8 mph - N/A   Clear
7:54 PM 36.0 °F 31.1 °F 25.0 °F 64% 30.04 in 10.0 mi SE 5.8 mph - N/A   Partly Cloudy
8:54 PM 35.1 °F 29.3 °F 25.0 °F 67% 30.04 in 10.0 mi SSE 6.9 mph - N/A   Clear
9:54 PM 33.1 °F 26.1 °F 25.0 °F 72% 30.04 in 10.0 mi SSE 8.1 mph - N/A   Clear
10:54 PM 32.0 °F 26.4 °F 25.0 °F 75% 30.05 in 10.0 mi South 5.8 mph - N/A   Clear